Location: Sungai Bunut
(2.6333°N, 113.7333°E)
Time: 00:06:45
(UTC+00:00)

COSMOS 2251 DEB - Visible Passes

Search period start: 11 August 2022 00:00
Search period end: 21 August 2022 00:00
Orbit: 731 x 760 km, 74.0° (Epoch: 10 August)

Date Brightness Start Highest point End Pass type
(mag) Time Alt. Az. Time Alt. Az. Time Alt. Az.
11 Aug ? 12:16:35 10° SW 12:21:03 32° WNW 12:25:31 10° NNW visible
12 Aug ? 11:32:19 10° SSW 11:37:22 83° W 11:42:26 10° N visible
13 Aug ? 10:49:04 10° S 10:53:43 38° ESE 10:58:22 10° NE visible
13 Aug ? 12:33:41 10° W 12:35:03 11° WNW 12:36:24 10° WNW visible
14 Aug ? 11:47:01 10° SW 11:51:20 28° WNW 11:55:40 10° NNW visible
15 Aug ? 11:02:37 10° SSW 11:07:39 74° WNW 11:12:42 10° N visible
15 Aug ? 21:50:07 10° NNE 21:53:43 19° ENE 21:57:19 10° ESE visible
17 Aug ? 11:17:28 10° SW 11:21:37 25° WNW 11:25:45 10° NNW visible
18 Aug ? 21:20:08 10° NNE 21:24:00 21° ENE 21:27:52 10° SE visible
20 Aug ? 21:32:52 10° N 21:37:59 59° ENE 21:43:03 10° SSE visible
